• In Schweiz
  • Länderverzeichnis
  • Für 7 Tage
  • Wassertemperatur
  • Satellitenkarten
  • Wetterkarte
  • Widgets
  • user-avatar
    Anmelden

    Stündliche Wetter Mamalaevka

    Heute, 18 Oktober, Donnerstag

    Zeit Temperatur Niederschläge Wind Luftdruck Luftfeuchtigkeit
    00:00 +7°C° 0 mm 5 m/S 750 mmHg 70%
    01:00 +6°C° 0 mm 5 m/S 750 mmHg 70%
    02:00 +5°C° 0 mm 4 m/S 751 mmHg 71%
    03:00 +5°C° 0 mm 4 m/S 751 mmHg 73%
    04:00 +4°C° 0 mm 4 m/S 752 mmHg 74%
    05:00 +3°C° 0 mm 3 m/S 752 mmHg 77%
    06:00 +3°C° 0 mm 3 m/S 752 mmHg 79%
    07:00 +4°C° 0 mm 2 m/S 753 mmHg 82%
    08:00 +4°C° 0 mm 3 m/S 753 mmHg 74%
    09:00 +5°C° 0 mm 4 m/S 753 mmHg 67%
    10:00 +7°C° 0 mm 5 m/S 753 mmHg 59%
    11:00 +7°C° 0 mm 5 m/S 753 mmHg 55%
    12:00 +8°C° 0 mm 5 m/S 753 mmHg 51%
    13:00 +9°C° 0 mm 5 m/S 753 mmHg 46%
    14:00 +9°C° 0 mm 5 m/S 753 mmHg 46%
    15:00 +9°C° 0 mm 5 m/S 753 mmHg 46%
    16:00 +9°C° 0 mm 5 m/S 753 mmHg 46%
    17:00 +8°C° 0 mm 4 m/S 753 mmHg 51%
    18:00 +8°C° 0 mm 3 m/S 753 mmHg 56%
    19:00 +7°C° 0 mm 3 m/S 753 mmHg 61%
    20:00 +6°C° 0 mm 2 m/S 753 mmHg 63%
    21:00 +6°C° 0 mm 2 m/S 753 mmHg 65%
    22:00 +5°C° 0 mm 2 m/S 753 mmHg 67%
    23:00 +5°C° 0 mm 2 m/S 753 mmHg 68%

    Morgen, 19 Oktober, Freitag

    Zeit Temperatur Niederschläge Wind Luftdruck Luftfeuchtigkeit
    00:00 +5°C° 0 mm 2 m/S 752 mmHg 68%
    01:00 +4°C° 0 mm 2 m/S 752 mmHg 68%
    02:00 +3°C° 0 mm 3 m/S 752 mmHg 68%
    03:00 +3°C° 0 mm 3 m/S 752 mmHg 68%
    04:00 +3°C° 0 mm 3 m/S 752 mmHg 67%
    05:00 +3°C° 0 mm 3 m/S 752 mmHg 68%
    06:00 +4°C° 0 mm 3 m/S 752 mmHg 68%
    07:00 +4°C° 0 mm 4 m/S 752 mmHg 68%
    08:00 +5°C° 0 mm 4 m/S 752 mmHg 64%
    09:00 +7°C° 0 mm 5 m/S 752 mmHg 60%
    10:00 +8°C° 0 mm 6 m/S 752 mmHg 56%
    11:00 +10°C° 0 mm 6 m/S 751 mmHg 53%
    12:00 +11°C° 0 mm 7 m/S 751 mmHg 49%
    13:00 +12°C° 0 mm 7 m/S 751 mmHg 46%
    14:00 +14°C° 0 mm 7 m/S 751 mmHg 47%
    15:00 +14°C° 0 mm 7 m/S 750 mmHg 47%
    16:00 +14°C° 0 mm 6 m/S 750 mmHg 48%
    17:00 +13°C° 0 mm 6 m/S 750 mmHg 51%
    18:00 +10°C° 0 mm 5 m/S 750 mmHg 55%
    19:00 +9°C° 0 mm 5 m/S 750 mmHg 58%
    20:00 +9°C° 0 mm 5 m/S 750 mmHg 59%
    21:00 +9°C° 0 mm 5 m/S 750 mmHg 59%
    22:00 +8°C° 0 mm 5 m/S 750 mmHg 60%
    23:00 +8°C° 0 mm 5 m/S 750 mmHg 61%

    übermorgen, 20 Oktober, Samstag

    Zeit Temperatur Niederschläge Wind Luftdruck Luftfeuchtigkeit
    00:00 +7°C° 0 mm 5 m/S 750 mmHg 61%
    01:00 +7°C° 0 mm 5 m/S 750 mmHg 62%
    02:00 +7°C° 0 mm 5 m/S 749 mmHg 61%
    03:00 +7°C° 0 mm 5 m/S 749 mmHg 60%
    04:00 +6°C° 0 mm 5 m/S 749 mmHg 59%
    05:00 +6°C° 0 mm 5 m/S 749 mmHg 58%
    06:00 +6°C° 0 mm 5 m/S 749 mmHg 56%
    07:00 +6°C° 0 mm 5 m/S 749 mmHg 55%
    08:00 +7°C° 0 mm 6 m/S 749 mmHg 50%
    09:00 +8°C° 0 mm 6 m/S 749 mmHg 45%
    10:00 +10°C° 0 mm 7 m/S 748 mmHg 40%
    11:00 +11°C° 0 mm 7 m/S 748 mmHg 39%
    12:00 +12°C° 0 mm 7 m/S 748 mmHg 39%
    13:00 +15°C° 0 mm 8 m/S 748 mmHg 38%
    14:00 +14°C° 0 mm 7 m/S 747 mmHg 40%
    15:00 +14°C° 0 mm 7 m/S 747 mmHg 42%
    16:00 +14°C° 0 mm 7 m/S 747 mmHg 45%
    17:00 +13°C° 0 mm 6 m/S 747 mmHg 48%
    18:00 +11°C° 0 mm 6 m/S 747 mmHg 52%
    19:00 +10°C° 0 mm 5 m/S 747 mmHg 56%
    20:00 +10°C° 0 mm 5 m/S 747 mmHg 60%
    21:00 +9°C° 0 mm 5 m/S 747 mmHg 65%
    22:00 +10°C° 0 mm 4 m/S 747 mmHg 69%
    23:00 +10°C° 0 mm 4 m/S 747 mmHg 75%

    21 Oktober, Sonntag

    Zeit Temperatur Niederschläge Wind Luftdruck Luftfeuchtigkeit
    00:00 +9°C° 0 mm 3 m/S 747 mmHg 80%
    01:00 +9°C° 0 mm 3 m/S 747 mmHg 85%
    02:00 +8°C° 0 mm 2 m/S 748 mmHg 87%
    03:00 +8°C° 0 mm 2 m/S 748 mmHg 88%
    04:00 +7°C° 0 mm 2 m/S 748 mmHg 90%
    05:00 +6°C° 0 mm 2 m/S 748 mmHg 90%
    06:00 +6°C° 0 mm 2 m/S 748 mmHg 90%
    07:00 +5°C° 0 mm 2 m/S 749 mmHg 89%
    08:00 +6°C° 0 mm 2 m/S 749 mmHg 82%
    09:00 +8°C° 0 mm 2 m/S 749 mmHg 74%
    10:00 +9°C° 0 mm 2 m/S 750 mmHg 66%
    11:00 +11°C° 0 mm 1 m/S 750 mmHg 60%
    12:00 +12°C° 0 mm 1 m/S 750 mmHg 54%
    13:00 +12°C° 0 mm 1 m/S 750 mmHg 49%
    14:00 +13°C° 0 mm 1 m/S 750 mmHg 48%
    15:00 +13°C° 0 mm 1 m/S 750 mmHg 47%
    16:00 +13°C° 0 mm 1 m/S 750 mmHg 46%
    17:00 +11°C° 0 mm 1 m/S 750 mmHg 51%
    18:00 +10°C° 0 mm 1 m/S 750 mmHg 55%
    19:00 +8°C° 0 mm 2 m/S 751 mmHg 60%
    20:00 +8°C° 0 mm 2 m/S 751 mmHg 62%
    21:00 +7°C° 0 mm 2 m/S 751 mmHg 64%
    22:00 +7°C° 0 mm 2 m/S 751 mmHg 67%
    23:00 +6°C° 0 mm 2 m/S 751 mmHg 69%

    22 Oktober, Montag

    Zeit Temperatur Niederschläge Wind Luftdruck Luftfeuchtigkeit
    00:00 +6°C° 0 mm 2 m/S 751 mmHg 71%
    01:00 +6°C° 0 mm 2 m/S 751 mmHg 74%
    02:00 +5°C° 0 mm 2 m/S 751 mmHg 76%
    03:00 +5°C° 0 mm 2 m/S 752 mmHg 79%
    04:00 +4°C° 0 mm 2 m/S 752 mmHg 81%
    05:00 +4°C° 0 mm 2 m/S 752 mmHg 83%
    06:00 +4°C° 0 mm 2 m/S 752 mmHg 85%
    07:00 +3°C° 0 mm 2 m/S 752 mmHg 87%
    08:00 +4°C° 0 mm 3 m/S 752 mmHg 81%
    09:00 +5°C° 0 mm 3 m/S 752 mmHg 75%
    10:00 +7°C° 0 mm 3 m/S 753 mmHg 69%
    11:00 +8°C° 0 mm 3 m/S 753 mmHg 64%
    12:00 +9°C° 0 mm 3 m/S 753 mmHg 58%
    13:00 +10°C° 0 mm 3 m/S 753 mmHg 53%
    14:00 +10°C° 0 mm 3 m/S 752 mmHg 53%
    15:00 +10°C° 0 mm 3 m/S 752 mmHg 52%
    16:00 +10°C° 0 mm 3 m/S 752 mmHg 52%
    17:00 +8°C° 0 mm 3 m/S 752 mmHg 56%
    18:00 +7°C° 0 mm 3 m/S 753 mmHg 60%
    19:00 +5°C° 0 mm 3 m/S 753 mmHg 64%
    20:00 +4°C° 0 mm 3 m/S 753 mmHg 66%
    21:00 +5°C° 0 mm 2 m/S 753 mmHg 68%
    22:00 +4°C° 0 mm 2 m/S 753 mmHg 69%
    23:00 +4°C° 0 mm 2 m/S 753 mmHg 72%

    23 Oktober, Dienstag

    Zeit Temperatur Niederschläge Wind Luftdruck Luftfeuchtigkeit
    00:00 +3°C° 0 mm 2 m/S 753 mmHg 74%
    01:00 +3°C° 0 mm 2 m/S 752 mmHg 76%
    02:00 +3°C° 0 mm 2 m/S 752 mmHg 77%
    03:00 +3°C° 0 mm 2 m/S 752 mmHg 78%
    04:00 +2°C° 0 mm 2 m/S 752 mmHg 79%
    05:00 +2°C° 0 mm 2 m/S 752 mmHg 79%
    06:00 +2°C° 0 mm 2 m/S 752 mmHg 80%
    07:00 +2°C° 0 mm 2 m/S 752 mmHg 80%
    08:00 +3°C° 0 mm 2 m/S 752 mmHg 73%
    09:00 +5°C° 0 mm 2 m/S 752 mmHg 66%
    10:00 +6°C° 0 mm 2 m/S 752 mmHg 59%
    11:00 +8°C° 0 mm 2 m/S 752 mmHg 53%
    12:00 +9°C° 0 mm 2 m/S 752 mmHg 47%
    13:00 +11°C° 0 mm 3 m/S 752 mmHg 41%
    14:00 +12°C° 0 mm 2 m/S 751 mmHg 42%
    15:00 +12°C° 0 mm 2 m/S 751 mmHg 42%
    16:00 +13°C° 0 mm 2 m/S 751 mmHg 42%
    17:00 +12°C° 0 mm 2 m/S 751 mmHg 46%
    18:00 +10°C° 0 mm 2 m/S 751 mmHg 50%
    19:00 +9°C° 0 mm 2 m/S 751 mmHg 55%
    20:00 +9°C° 0 mm 2 m/S 751 mmHg 57%
    21:00 +9°C° 0 mm 2 m/S 750 mmHg 60%
    22:00 +9°C° 0 mm 2 m/S 750 mmHg 62%
    23:00 +9°C° 0 mm 2 m/S 750 mmHg 62%
    Mehr zeigen